TimeCST,TemperatureF,Dew PointF,Humidity,Sea Level PressureIn,VisibilityMPH,Wind Direction,Wind SpeedMPH,Gust SpeedMPH,PrecipitationIn,Events,Conditions,WindDirDegrees,DateUTC
12:15 AM,14.0,8.6,79,29.67,4.0,WNW,16.1,24.2,N/A,Snow,Light Snow,300,2013-02-19 06:15:00
12:35 AM,14.0,6.8,73,29.68,5.0,NW,16.1,24.2,N/A,Snow,Light Snow,310,2013-02-19 06:35:00
12:55 AM,14.0,6.8,73,29.68,7.0,WNW,13.8,20.7,N/A,Snow,Light Snow,300,2013-02-19 06:55:00
1:15 AM,14.0,5.0,67,29.69,7.0,WNW,12.7,20.7,N/A,Snow,Light Snow,300,2013-02-19 07:15:00
1:35 AM,12.2,5.0,73,29.70,10.0,WNW,13.8,23.0,N/A,Snow,Light Snow,300,2013-02-19 07:35:00
1:55 AM,12.2,3.2,67,29.71,10.0,NNW,18.4,25.3,N/A,,Overcast,330,2013-02-19 07:55:00
2:15 AM,10.4,3.2,73,29.71,10.0,NW,15.0,20.7,N/A,,Overcast,320,2013-02-19 08:15:00
2:35 AM,10.4,3.2,73,29.72,10.0,WNW,15.0,23.0,N/A,Snow,Light Snow,300,2013-02-19 08:35:00
2:55 AM,8.6,1.4,73,29.73,7.0,NW,17.3,27.6,N/A,Snow,Light Snow,320,2013-02-19 08:55:00
3:15 AM,8.6,1.4,73,29.74,7.0,NW,19.6,24.2,N/A,Snow,Light Snow,310,2013-02-19 09:15:00
3:35 AM,8.6,-0.4,67,29.75,7.0,WNW,15.0,23.0,N/A,Snow,Light Snow,300,2013-02-19 09:35:00
3:55 AM,8.6,-0.4,67,29.76,7.0,NW,12.7,23.0,N/A,Snow,Light Snow,310,2013-02-19 09:55:00
4:15 AM,6.8,-0.4,72,29.76,7.0,NW,13.8,23.0,N/A,Snow,Light Snow,310,2013-02-19 10:15:00
4:35 AM,6.8,-0.4,72,29.77,7.0,WNW,17.3,26.5,N/A,Snow,Light Snow,300,2013-02-19 10:35:00
4:55 AM,5.0,-2.2,72,29.78,10.0,NW,16.1,24.2,N/A,,Overcast,310,2013-02-19 10:55:00
5:15 AM,5.0,-2.2,72,29.79,10.0,WNW,15.0,21.9,N/A,Snow,Light Snow,300,2013-02-19 11:15:00
5:35 AM,5.0,-4.0,66,29.81,10.0,NW,12.7,21.9,N/A,,Overcast,310,2013-02-19 11:35:00
5:55 AM,5.0,-4.0,66,29.81,10.0,NW,16.1,20.7,N/A,,Overcast,310,2013-02-19 11:55:00
6:15 AM,5.0,-4.0,66,29.82,10.0,NW,11.5,18.4,N/A,,Overcast,310,2013-02-19 12:15:00
6:35 AM,3.2,-4.0,72,29.83,10.0,NW,18.4,26.5,N/A,Snow,Light Snow,310,2013-02-19 12:35:00
6:55 AM,3.2,-5.8,66,29.84,7.0,NW,15.0,26.5,N/A,,Overcast,320,2013-02-19 12:55:00
7:15 AM,3.2,-5.8,66,29.86,7.0,NW,8.1,20.7,N/A,,Overcast,310,2013-02-19 13:15:00
7:35 AM,1.4,-5.8,72,29.88,5.0,WNW,17.3,21.9,N/A,Snow,Light Snow,300,2013-02-19 13:35:00
7:55 AM,1.4,-7.6,66,29.89,7.0,NW,17.3,23.0,N/A,,Overcast,310,2013-02-19 13:55:00
8:15 AM,1.4,-7.6,66,29.90,7.0,WNW,13.8,21.9,N/A,,Mostly Cloudy,300,2013-02-19 14:15:00
8:35 AM,1.4,-7.6,66,29.91,7.0,NW,10.4,24.2,N/A,,Scattered Clouds,320,2013-02-19 14:35:00
8:55 AM,1.4,-7.6,66,29.91,5.0,NW,17.3,26.5,N/A,,Haze,320,2013-02-19 14:55:00
9:15 AM,1.4,-7.6,66,29.92,10.0,NW,12.7,21.9,N/A,,Clear,310,2013-02-19 15:15:00
9:35 AM,1.4,-9.4,61,29.93,10.0,NW,15.0,23.0,N/A,,Clear,310,2013-02-19 15:35:00
9:55 AM,1.4,-9.4,61,29.95,10.0,NW,9.2,20.7,N/A,,Scattered Clouds,310,2013-02-19 15:55:00
10:15 AM,1.4,-9.4,61,29.95,10.0,NW,12.7,20.7,N/A,,Scattered Clouds,310,2013-02-19 16:15:00
10:35 AM,1.4,-9.4,61,29.96,10.0,NW,15.0,20.7,N/A,,Clear,320,2013-02-19 16:35:00
10:55 AM,3.2,-9.4,56,29.97,10.0,WNW,16.1,19.6,N/A,,Clear,300,2013-02-19 16:55:00
11:15 AM,3.2,-9.4,56,29.98,10.0,NW,12.7,20.7,N/A,,Clear,310,2013-02-19 17:15:00
11:35 AM,5.0,-7.6,56,29.98,10.0,WNW,10.4,20.7,N/A,,Clear,300,2013-02-19 17:35:00
12:15 PM,6.8,-5.8,56,29.99,10.0,WNW,12.7,-,N/A,,Clear,300,2013-02-19 18:15:00
12:35 PM,6.8,-5.8,56,29.99,10.0,NW,12.7,19.6,N/A,,Clear,310,2013-02-19 18:35:00
12:55 PM,8.6,-5.8,52,30.00,10.0,WNW,12.7,20.7,N/A,,Mostly Cloudy,290,2013-02-19 18:55:00
1:15 PM,8.6,-5.8,52,30.00,10.0,NW,12.7,18.4,N/A,,Scattered Clouds,310,2013-02-19 19:15:00
1:35 PM,8.6,-5.8,52,30.01,10.0,WNW,13.8,21.9,N/A,,Clear,300,2013-02-19 19:35:00
1:55 PM,10.4,-5.8,48,30.01,10.0,NW,12.7,18.4,N/A,,Clear,310,2013-02-19 19:55:00
2:15 PM,10.4,-4.0,52,30.01,10.0,NW,12.7,19.6,N/A,,Clear,320,2013-02-19 20:15:00
2:35 PM,10.4,-4.0,52,30.02,10.0,WNW,13.8,20.7,N/A,,Clear,290,2013-02-19 20:35:00
2:55 PM,10.4,-5.8,48,30.03,10.0,NW,11.5,20.7,N/A,,Clear,310,2013-02-19 20:55:00
3:15 PM,10.4,-4.0,52,30.04,10.0,WNW,13.8,19.6,N/A,,Clear,290,2013-02-19 21:15:00
3:35 PM,10.4,-4.0,52,30.05,10.0,WNW,13.8,19.6,N/A,,Clear,290,2013-02-19 21:35:00
3:55 PM,10.4,-5.8,48,30.07,10.0,NW,12.7,19.6,N/A,,Clear,320,2013-02-19 21:55:00
4:15 PM,10.4,-4.0,52,30.08,10.0,WNW,13.8,-,N/A,,Clear,290,2013-02-19 22:15:00
4:35 PM,10.4,-5.8,48,30.09,10.0,WNW,15.0,21.9,N/A,,Clear,300,2013-02-19 22:35:00
4:55 PM,10.4,-5.8,48,30.10,10.0,NW,10.4,-,N/A,,Clear,320,2013-02-19 22:55:00
5:15 PM,10.4,-5.8,48,30.11,10.0,NW,10.4,-,N/A,,Clear,320,2013-02-19 23:15:00
5:35 PM,8.6,-5.8,52,30.12,10.0,NW,9.2,-,N/A,,Clear,310,2013-02-19 23:35:00
6:35 PM,6.8,-7.6,52,30.16,10.0,NW,6.9,-,N/A,,Clear,320,2013-02-20 00:35:00
6:55 PM,6.8,-7.6,52,30.17,10.0,NW,6.9,-,N/A,,Clear,320,2013-02-20 00:55:00
7:15 PM,6.8,-7.6,52,30.18,10.0,NW,5.8,-,N/A,,Clear,320,2013-02-20 01:15:00
7:55 PM,5.0,-7.6,56,30.19,10.0,NNW,9.2,-,N/A,,Clear,330,2013-02-20 01:55:00
8:15 PM,5.0,-7.6,56,30.20,10.0,NW,9.2,-,N/A,,Clear,320,2013-02-20 02:15:00
8:35 PM,5.0,-7.6,56,30.20,10.0,NNW,9.2,16.1,N/A,,Clear,340,2013-02-20 02:35:00
9:15 PM,5.0,-7.6,56,30.22,10.0,NW,8.1,-,N/A,,Clear,320,2013-02-20 03:15:00
9:35 PM,5.0,-7.6,56,30.23,10.0,NNW,10.4,17.3,N/A,,Clear,330,2013-02-20 03:35:00
9:55 PM,3.2,-7.6,61,30.24,10.0,NNW,8.1,-,N/A,,Clear,330,2013-02-20 03:55:00
10:15 PM,3.2,-5.8,66,30.25,10.0,NNW,8.1,-,N/A,,Clear,340,2013-02-20 04:15:00
10:35 PM,3.2,-7.6,61,30.25,10.0,NNW,8.1,-,N/A,,Clear,330,2013-02-20 04:35:00
10:55 PM,3.2,-7.6,61,30.26,10.0,NNW,6.9,-,N/A,,Clear,330,2013-02-20 04:55:00
11:15 PM,3.2,-7.6,61,30.26,10.0,NW,6.9,-,N/A,,Clear,320,2013-02-20 05:15:00
11:35 PM,1.4,-7.6,66,30.27,10.0,NNW,6.9,-,N/A,,Clear,330,2013-02-20 05:35:00
11:55 PM,1.4,-7.6,66,30.27,10.0,NNW,8.1,-,N/A,,Clear,330,2013-02-20 05:55:00